Regional Weather Roundup
Issued by NWS

Home | Current Version | Previous Version | Text Only | Print | Product List | Glossary On
Versions: 1 2 3 4 5 6 7 8 9 10 11 12 13 14 15 16 17 18 19 20 21 22 23 24 25 26 27 28 29 30 31 32 33 34 35 36 37 38 39 40 41 42 43 44 45 46 47 48 49 50
000
ASUS43 KOAX 170810
RWRNE

WEATHER ROUNDUP FOR NEBRASKA
NATIONAL WEATHER SERVICE OMAHA NE
300 AM CDT MON JUN 17 2019

NOTES: SATELLITE DATA IS BEING USED TO AUGMENT CLOUD COVER ABOVE
       12000 FEET.
       "FAIR" INDICATES FEW OR NO CLOUDS BELOW 12,000 FEET WITH NO
       SIGNIFICANT WEATHER AND/OR OBSTRUCTIONS TO VISIBILITY.


NEZ001>004-019>022-054>056-170900-
NEBRASKA PANHANDLE

CITY           SKY/WX    TMP DP  RH WIND       PRES   REMARKS
SCOTTSBLUFF    FAIR      56  56 100 SW3       30.03F
ALLIANCE       FAIR      56  54  93 E6        30.02S
CHADRON        FAIR      54  52  93 CALM      30.01S
GORDON         FAIR      53  52  95 CALM      30.02S
KIMBALL        CLOUDY    56  56  98 E10       30.07F FOG
SIDNEY         CLOUDY    57  55  93 NE6       30.07F
$$

NEZ057>060-069>072-079>082-170900-
SOUTHWEST NEBRASKA

CITY           SKY/WX    TMP DP  RH WIND       PRES   REMARKS
NORTH PLATTE   FAIR      59  57  93 CALM      30.00F
IMPERIAL       LGT RAIN  59  56  89 N8        30.03R
LEXINGTON      FAIR      62  60  96 CALM      29.99S
MCCOOK         CLOUDY    62  59  90 E6        29.99R
OGALLALA       MOCLDY    60  60  98 MISG      30.03S FOG
$$

NEZ005>010-023>029-035>040-094-170900-
NORTH CENTRAL NEBRASKA

CITY           SKY/WX    TMP DP  RH WIND       PRES   REMARKS
VALENTINE      FAIR      56  52  86 NW6       29.99S
AINSWORTH      FAIR      59  59 100 SW5       29.99S
BROKEN BOW     CLOUDY    64  61  90 CALM      29.98S
O`NEILL        CLOUDY    65  58  78 CALM      29.97S
ORD            LGT RAIN  65  61  87 NW6       29.95F
THEDFORD       MOCLDY    62  59  91 S3        30.01R
$$

NEZ041-046>049-061>064-073>077-083>087-170900-
SOUTH CENTRAL NEBRASKA

CITY           SKY/WX    TMP DP  RH WIND       PRES   REMARKS
GRAND ISLAND   MOCLDY    68  58  70 W5        29.95S
AURORA         FAIR      68  60  75 SW7       29.94S
HASTINGS       FAIR      70  58  65 CALM      29.96S
HEBRON         FAIR      63  61  94 CALM      29.94R
HOLDREGE       CLOUDY    67  61  81 NW5       29.98S
KEARNEY        CLOUDY    69  59  70 CALM      29.97S
YORK           CLOUDY    66  59  77 SW5       29.94S
$$

NEZ011>018-030>034-042>045-170900-
NORTHEAST NEBRASKA

CITY           SKY/WX    TMP DP  RH WIND       PRES   REMARKS
NORFOLK        MOCLDY    66  57  72 SW5       29.93S
ALBION         MOCLDY    70  57  64 NE6       29.93F
BLAIR          FAIR      69  59  71 SE5       29.92S
COLUMBUS       FAIR      70  59  68 S6        29.93F
FREMONT        FAIR      69  60  71 CALM      29.92F
TEKAMAH        FAIR      65  57  75 CALM      29.91S
WAYNE          CLOUDY    64  56  75 CALM      29.92S
$$

NEZ050>053-065>068-078-088>093-170900-
SOUTHEAST NEBRASKA

CITY           SKY/WX    TMP DP  RH WIND       PRES   REMARKS
LINCOLN        FAIR      65  59  81 CALM      29.93S
OMAHA EPPLEY   CLOUDY    68  62  81 SE5       29.91S
BEATRICE       FAIR      65  62  91 CALM      29.93S
FALLS CITY     FAIR      68  63  84 E3        29.91S
NEBRASKA CITY  FAIR      67  62  82 SE3       29.93S
PLATTSMOUTH    FAIR      67  62  83 SE6       29.92S
$$

NEZ044-045-051>053-067-170900-
OMAHA AREA

CITY           SKY/WX    TMP DP  RH WIND       PRES   REMARKS
OMAHA EPPLEY   CLOUDY    68  62  81 SE5       29.91S
BLAIR          FAIR      69  59  71 SE5       29.92S
FREMONT        FAIR      69  60  71 CALM      29.92F
MILLARD        FAIR      67  63  87 CALM      29.92S
OFFUTT AFB     PTCLDY    72  63  73 CALM      29.90S
PLATTSMOUTH    FAIR      67  62  83 SE6       29.92S
WAHOO          FAIR      65  61  85 SE3       29.92S
$$




USA.gov is the U.S. government's official web portal to all federal, state and local government web resources and services.